Ashtabula, OH

8:22 AM EDT on May 27, 2017 (GMT -0400)
Ashtabula County

Weather History for KHZY - April, 2014

Change the Weather History Date:

Monday, April 7, 2014

  Actual Average (KGKJ) Record (KGKJ)
Temperature  
Mean Temperature 43 °F -  
Max Temperature 54 °F 51 °F 77 °F (2001)
Min Temperature 32 °F 29 °F 15 °F (1982)
Degree Days  
Heating Degree Days 22    
Moisture  
Dew Point 35 °F    
Average Humidity 73    
Maximum Humidity 93    
Minimum Humidity 41    
Precipitation  
Precipitation 0.52 in - - ()
Sea Level Pressure  
Sea Level Pressure 29.66 in    
Wind  
Wind Speed 6 mph (ESE)    
Max Wind Speed 14 mph    
Max Gust Speed 25 mph    
Visibility 9 miles    
Events Rain , Thunderstorm    
Averages and records for this station are not official NWS values.
T = Trace of Precipitation, MM = Missing Value Source: NWS Daily Summary

Daily Weather History Graph

Daily Weather History Graph

Search for Another Location

Airport or City:

Trip Planner

Search our weather history database for the weather conditions in past years. The results will help you decide how hot, cold, wet, or windy it might be!

Date:

Astronomy

Apr. 07, 2014 Rise Set
Actual Time 6:55 AM EDT 7:54 PM EDT
Civil Twilight 6:27 AM EDT 8:23 PM EDT
Nautical Twilight 5:53 AM EDT 8:57 PM EDT
Astronomical Twilight 5:18 AM EDT 9:32 PM EDT
Moon 12:47 PM EDT (4/7) 2:33 AM EDT (4/7)
Length of Visible Light 13h 56m
Length of Day
12h 59m
First Quarter, 53% of the Moon is Illuminated
Apr 7
First Quarter
Apr 15
Full
Apr 22
Last Quarter
Apr 29
New
May 6
First Quarter

Hourly Weather History & Observations

Time (EDT) Temp. Windchill Dew Point Humidity Pressure Visibility Wind Dir Wind Speed Gust Speed Precip Events Conditions
12:53 AM 32.0 °F 27.5 °F 27.0 °F 82% 30.03 in 10.0 mi East 4.6 mph - N/A   Clear
1:53 AM 32.0 °F - 25.0 °F 75% 30.01 in 10.0 mi Calm Calm - N/A   Clear
2:53 AM 32.0 °F - 27.0 °F 82% 30.00 in 10.0 mi Calm Calm - N/A   Clear
3:53 AM 36.0 °F 31.1 °F 26.1 °F 67% 29.97 in 10.0 mi ESE 5.8 mph - N/A   Clear
4:53 AM 41.0 °F 36.4 °F 24.1 °F 51% 29.94 in 10.0 mi SE 6.9 mph - N/A   Clear
5:53 AM 41.0 °F 35.2 °F 24.1 °F 51% 29.91 in 10.0 mi SE 9.2 mph - N/A   Clear
6:53 AM 43.0 °F 36.8 °F 24.1 °F 47% 29.93 in 10.0 mi SE 11.5 mph - N/A   Clear
7:53 AM 43.0 °F 38.2 °F 25.0 °F 49% 29.91 in 10.0 mi SE 8.1 mph - N/A   Clear
8:53 AM 45.0 °F 40.1 °F 25.0 °F 46% 29.91 in 10.0 mi SE 9.2 mph - N/A   Clear
9:53 AM 46.9 °F - 27.0 °F 46% 29.88 in 10.0 mi SE 8.1 mph - N/A   Overcast
10:53 AM 48.0 °F - 28.0 °F 46% 29.87 in 10.0 mi SE 8.1 mph - N/A   Overcast
11:53 AM 50.0 °F - 28.9 °F 44% 29.84 in 10.0 mi SE 13.8 mph - N/A   Overcast
12:53 PM 52.0 °F - 30.9 °F 45% 29.81 in 10.0 mi SE 13.8 mph - N/A   Overcast
1:53 PM 54.0 °F - 30.9 °F 41% 29.78 in 10.0 mi SE 11.5 mph - N/A   Overcast
2:53 PM 50.0 °F - 39.0 °F 66% 29.75 in 10.0 mi SE 13.8 mph 25.3 mph 0.00 in Rain Light Rain
4:53 PM 45.0 °F 38.5 °F 39.9 °F 82% 29.62 in 6.0 mi ESE 13.8 mph - 0.06 in Rain Light Rain
5:53 PM 44.1 °F 39.0 °F 39.0 °F 82% 29.59 in 5.0 mi SE 9.2 mph - 0.04 in Rain Rain
6:32 PM 43.0 °F 37.2 °F 39.9 °F 89% 29.52 in 6.0 mi ESE 10.4 mph - 0.12 in Rain Light Rain
6:50 PM 44.6 °F 40.2 °F 39.2 °F 81% 29.52 in 10.0 mi ESE 8.1 mph - 0.12 in   Overcast
6:53 PM 44.1 °F 39.0 °F 39.9 °F 85% 29.53 in 10.0 mi ESE 9.2 mph - 0.12 in   Overcast
7:24 PM 44.1 °F 42.5 °F 41.0 °F 89% 29.52 in 10.0 mi SE 3.5 mph - 0.00 in Rain Light Rain
7:53 PM 44.1 °F 42.5 °F 41.0 °F 89% 29.51 in 10.0 mi ENE 3.5 mph - 0.01 in Rain Light Rain
8:26 PM 44.1 °F 40.8 °F 41.0 °F 89% 29.47 in 8.0 mi East 5.8 mph - 0.02 in Rain Light Rain
8:53 PM 44.1 °F 42.5 °F 41.0 °F 89% 29.49 in 5.0 mi ESE 3.5 mph - 0.06 in Rain Rain
9:51 PM 44.6 °F 38.4 °F 42.8 °F 93% 29.41 in 8.0 mi ESE 12.7 mph - 0.19 in Rain Light Rain
9:53 PM 45.0 °F 39.3 °F 42.1 °F 90% 29.41 in 9.0 mi East 11.5 mph - 0.19 in Rain Light Rain
10:13 PM 46.0 °F 41.9 °F 42.1 °F 86% 29.42 in 10.0 mi SE 8.1 mph - 0.00 in   Overcast
10:22 PM 46.0 °F - 43.0 °F 89% 29.42 in 10.0 mi Calm Calm - 0.00 in   Overcast
10:53 PM 46.0 °F 43.9 °F 42.1 °F 86% 29.41 in 10.0 mi ESE 4.6 mph - 0.00 in Rain Light Rain
11:17 PM 46.0 °F 43.9 °F 42.1 °F 86% 29.38 in 10.0 mi East 4.6 mph - 0.00 in Rain Light Rain
11:31 PM 46.0 °F - 43.0 °F 89% 29.38 in 10.0 mi Calm Calm - 0.01 in Thunderstorm Overcast
11:46 PM 46.0 °F - 43.0 °F 89% 29.37 in 4.0 mi Calm Calm - 0.03 in Rain Rain
11:53 PM 46.0 °F - 43.0 °F 89% 29.38 in 4.0 mi Calm Calm - 0.04 in Rain Rain